Regional Weather Roundup
Issued by NWS

Home | Current Version | Previous Version | Graphics & Text | Print | Product List | Glossary On
Versions: 1 2 3 4 5 6 7 8 9 10 11 12 13 14 15 16 17 18 19 20 21 22 23 24 25 26 27 28 29 30 31 32 33 34 35 36 37 38 39 40 41 42 43 44 45 46 47 48 49 50
012
ASUS44 KMEG 120810
RWRTN
TENNESSEE HOURLY STATE WEATHER ROUNDUP
NATIONAL WEATHER SERVICE MEMPHIS TN
200 AM CST FRI FEB 12 2016

TNZ002-004-019-021-049-052-054-088>092-120900-
WEST TENNESSEE

CITY           SKY/WX    TMP DP  RH WIND       PRES   REMARKS
MEMPHIS INTL   CLOUDY    40  24  53 NE5       30.17S
NWS MEMPHIS      N/A     38 N/A N/A MISG        N/A
JACKSON        CLOUDY    35  23  61 E6        30.18S WCI  30
DYERSBURG      CLOUDY    34  25  69 NE5       30.21F WCI  30
UNION CITY       N/A     30  21  69 NE6       30.17F WCI  24
PARIS          CLOUDY    28  19  69 NE3       30.19F
LEXINGTON      CLOUDY    34  21  60 CALM      30.17R
$$

TNZ008-025-027-028-033-062-065-066-120900-
NORTH MIDDLE TENNESSEE

CITY           SKY/WX    TMP DP  RH WIND       PRES   REMARKS
NASHVILLE      CLOUDY    34  20  56 E5        30.17F WCI  30
CLARKSVILLE    CLOUDY    31  18  58 NW3       30.21R
SMYRNA         CLOUDY    33  22  64 SE8       30.16F WCI  26
COOKEVILLE     PTCLDY    30  25  80 SE3       30.13F
CROSSVILLE     CLOUDY    30  19  63 NE3       30.13F
$$

TNZ061-075-076-078-094-096-097-120900-
SOUTH MIDDLE TENNESSEE

CITY           SKY/WX    TMP DP  RH WIND       PRES   REMARKS
FAYETTEVILLE   MOCLDY    34  25  69 NE5       30.14F WCI  30
TULLAHOMA      CLEAR     30  23  74 NE3       30.15F
WINCHESTER     PTCLDY    30  27  86 CALM      30.16R
MCMINNVILLE    PTCLDY    30  23  74 NE5       30.15F WCI  25
COLUMBIA       CLOUDY    32  27  80 SE3       30.14F
SHELBYVILLE    MOCLDY    32  27  80 CALM      30.17S
$$

TNZ017-018-042-046-047-120900-
NORTHEAST TENNESSEE

CITY           SKY/WX    TMP DP  RH WIND       PRES   REMARKS
TRI CITIES     MOCLDY    26  20  77 CALM      30.16F
$$

TNZ012-013-036-069-073-074-120900-
CENTRAL EAST TENNESSEE

CITY           SKY/WX    TMP DP  RH WIND       PRES   REMARKS
KNOXVILLE      CLOUDY    32  19  58 N5        30.18R WCI  27
OAK RIDGE      CLOUDY    32  17  54 CALM      30.19F
GATLINBURG     PTSUNNY   27  19  74 VRB5      30.15F WCI  21
MORRISTOWN     CLOUDY    30  19  64 CALM      30.14F
$$

TNZ083-085-099-120900-
SOUTHEAST TENNESSEE

CITY           SKY/WX    TMP DP  RH WIND       PRES   REMARKS
CHATTANOOGA    CLOUDY    35  22  58 N8        30.19S WCI  29
$$

SKY/WX REPORTED AS FAIR MEANS FEW OR NO CLOUDS BELOW
12 THOUSAND FEET.





USA.gov is the U.S. government's official web portal to all federal, state and local government web resources and services.